Weather in Shutino

Russia / Kurgan Oblast     56°24′27″N   62°46′07″E
temp.,
°C
wind,
m/s
gust,
m/s
humid.,
%
clouds,
%
prec.,
mm/h
press.,
hPa
HPBL,
m
1 march, mon
mon123:00−17ne379698 0.4 1012274
02:00−18ne379687 0.1 1014217
05:00−19nne359788 0.1 1015161
08:00−19nne369794 0.1 1016220
11:00−18nne349590 0.1 1017277
14:00−16n3491100 0.0 1017387
17:00−15n1294100 0.1 101774
20:00−19nnw019994 0.0 101720
2 march, tue
tue223:00−20ssw229976 0.0 101720
02:00−21sw2310053 0.0 101523
05:00−21ssw349935 0.0 101568
08:00−21ssw349965 0.0 101375
11:00−15sw589035 0.0 1012359
14:00−12s699326 0.0 1008389
17:00−12s5109461 0.0 1006375
20:00−13s61195100 0.0 1004317
3 march, wed
wed323:00−13s51094100 0.1 1003303
02:00−12s4895100 0.3 1001247
05:00−11ssw499599 0.4 1001306
08:00−10ssw5109592 0.3 999359
11:00−7ssw6119396 0.7 998464
14:00−4ssw598880 0.1 997557
17:00−3ssw5109188 0.1 997453
20:00−5ssw499392 0.0 998165
4 march, thu
thu423:00−6sw479193 0.0 999139
02:00−9sw349450 0.0 99848
05:00−10sw339549 0.0 99828
08:00−9sw339698 0.0 99762
11:00−5wsw359599 0.1 997285
14:00−3w4694100 0.3 997538
17:00−4w51085100 0.8 999727
20:00−9w498727 0.0 1000196
5 march, fri
fri523:00−12wsw489014 0.0 1002136
02:00−13ssw510925 0.0 1001206
05:00−9ssw7149450 0.8 999661
08:00−7ssw81586100 1.4 997709
11:00−3sw91583100 1.4 994992
14:00+1sw9178299 0.2 9941432
17:00−2wsw6147263 0.9 997913
20:00−6wsw616780 0.0 1001724